CZ-6A DEB, 54596

Orbit data source: Space-Track

CZ-6A DEB, 54596 is space debris in SSO originally from a launch on Fri, 11 Nov 2022 UTC launched from the Taiyaun Space Center, China (TSC). Debris objects in space refer to the collection of defunct objects orbiting the Earth. Examples of debris include non-operational satellites, rocket bodies, and fragments generated from explosions, collisions, or faulty payload assembly.

Loading next visibility...
Identifier
54596, 2022-151MW
Orbit
SSO
Country
Flag of CNCN / PRC
Related business
Manufacturer
SAST
Mission
Spacecraft
Bus & Motor
Unknown
Mass
Unknown
Launch date (UTC)
2022-11-11 (4 years ago)
Launch vehicle
Unknown
Launch site
Taiyaun Space Center, China (TSC)
Object type
Payload
Rocket body
Debris
Shape & HBR
Unknown shape, 0.2 m
Radar Cross Section
Medium (>0.1 m² and <1 m²)

Expand to show TLE details & history
Last TLE update: 13 hours ago

TLE from 13 hours ago
0 CZ-6A DEB
1 54596U 22151MW  26236.27493341  .00000270  00000-0  17148-3 0  9995
2 54596  98.8466 238.7057 0042959 138.6535 221.7902 14.11533569194188
Epoch: 2026-08-24T06:35Z
TLE epoch observation values (Epoch: 2026-08-24T06:35:54.246Z)
Latitude
0.00001°
Longitude
167.1707°
Altitude
880.256 km
Speed
7.4 km/s
True Right ascension
15h 54m 49s
True Declination
0° 00' 00"
Sunlit
Object was in daylight at epoch
Visualization orbit readout
Latitude
Unknown
Longitude
Unknown
Altitude
Unknown
Speed
Unknown
Apparent Right ascension
Unknown
Apparent Declination
Unknown
Sunlit
N/A
Visualization observer readout
Local Sidereal Time
10:50:14
Azimuth
Unknown
Elevation
Unknown
Doppler factor
Unknown
Orbital elements
Apogee altitude
882.362 km
Perigee altitude
820.248 km
Semi-major axis
7,229.442 km
Eccentricity
0.0043
Inclination
98.8466°
RAAN
238.7057°
Arg. of periapsis
138.6535°
True anomaly
221.46346°
Mean anomaly
221.7902°
Eccentric anomaly
221.6267°
Mean motion
3.5309 °/min
Orbital period
101.96 mins
BSTAR
0.00017148
Loading maneuver chart data...
Computing Atmospheric mass density...
Loading historical data...
Loading historical data...
Loading historical data...
Loading historical data...
Loading historical data...
Loading historical data...
Loading historical data...

Documentation

Showing up to 5 results
|